sat.trackr.live / text

‹ back to catalog

STARLINK-36216

NORAD 67217 · 2025-304AB

PAYLOAD ACTIVE UNKNOWN

§ Identity

Operator
Country
US
Launch date
2025-12-17
Launch site
AFWTR
Launch vehicle
Mass (kg)
RCS (m²)

Purposes: comms

External: N2YO · Heavens-Above · Gunter

§ Orbital elements

Epoch: 2026-09-19T19:48:59.945184Z

Period
96.11 min
Inclination
70.0015°
Eccentricity
0.0003227
Mean motion
14.98337816 rev/d
Perigee alt
569.8 km
Apogee alt
574.3 km
Semi-major
6,950.2 km
B*
3.0969e-4
RAAN
44.9941°
Arg perigee
270.6413°
Mean anomaly
89.4376°
Rev number
4,295

§ Raw data

STARLINK-362161 67217U 25304AB  26262.82569381  .00003605  00000+0  30969-3 0  99902 67217  70.0015  44.9941 0003227 270.6413  89.4376 14.98337816 42953

JSON: /api/v1/satellites/67217 · /tle

For live sub-satellite position, see the globe view (requires WebGL).

§ Visibility from observer

Set your observer location to see the next 7 days of passes ≥ 10°. The values pass through the URL so the page stays shareable.

No JS? Fill the form by hand. The geolocation button needs JavaScript.